Вернуться в каталог

COSMOS 970 DEB

АктивенLEO
NORAD 12860·DEBRIS·🇷🇺 Russia

Запущен Dec 21, 1977 с Baikonur Cosmodrome

Loading…

Ближайшие Пролёты (ближайшие 24 часа)

TLE

СвежийSource: Space-Track

Эпоха: Sep 13, 2026, 16:17 UTC

1 12860U 77121AN  26256.67863947  .00000064  00000-0  16975-3 0  9997
2 12860  65.8047 153.7287 0137236 285.1796  91.9287 13.63514054323480

Отслеживайте COSMOS 970 DEB в реальном времени с AllMySat

Download on the App Store